Current Weather Network in the world 
cooperate with our weather  network
  
 
country list  
Weather now
09-07-20  16:23
Roma Marconi (RM)  (Italy)  
31.7  C.     Debole;

 

If you want to participate in our meteorological network, fill in form data, and send us an  e_mail and we will activate your weather station in your country. You would to send your weather reporting, one or more times a day, through our website .. for examples insert
       
manual meteorological reports today      
Weather reporting today :
Romania: stazione meteo: Amara
14:44
PAESE CITTA'DATAORAT C.(m)VENTO (Km/h)PAPREC.STATO
AustriaInnsbruck09-07-2014:20 UTC294.12 ENE1015
AustriaLinz09-07-2014:20 UTC254.12 NNW1016
AustriaVienna/Wien09-07-2014:20 UTC275.14 SSE1016
AustriaSalisburgo/Salzsbu09-07-2014:20 UTC272.57 N1016
Belarus/BielorussiaMinsk09-07-2014:00 UTC204 W1016
Belarus/BielorussiaRiga09-07-2014:20 UTC182.06 WSW1013
BulgariaSofia09-07-2014:30 UTC273.09 SE1019
Belgium/BelgioBruxelles09-07-2014:20 UTC216.17 WSW1013
Croatia/CroaziaZagabria/Zagreb09-07-2014:00 UTC281.54 E1017
Croatia/CroaziaDubrovnik09-07-2014:00 UTC273.09 W1016
Croatia/CroaziaSpalato/Split09-07-2014:00 UTC314.63 SW1016
Croatia/CroaziaPula09-07-2014:00 UTC304.12 W1016
Croatia/CroaziaZara/Zadar09-07-2014:00 UTC315.14 W1016
Croazia/CroatiaFiume/Rijeka09-07-2014:00 UTC313.09 W1016
Czech RepublicPraga09-07-2014:00 UTC234.12 WSW1015
SlovakiaBratislava09-07-2014:00 UTC294.12 SSW1017
BosniaSarajevo09-07-2014:00 UTC292.06 NNW1019
Denmark/DanimarcaAlborg09-07-2014:20 UTC173.6 WNW1011
Denmark/DanimarcaEsbjerg09-07-2014:20 UTC153.6 NNW1012
Denmark/DanimarcaCopenaghen/Koeben.09-07-2014:20 UTC165.14 S1012
Finland/FinlandiaHelsinky09-07-2015:50 UTC-23.09 NE1021
Finland/FinlandiaOulu09-07-2014:20 UTC143.6 ENE1005
France/FranciaParigi/Paris09-07-2014:00 UTC305.14 W1014
France/FranciaNizza/Nices09-07-2014:00 UTC273.09 SSE1017
France/FranciaTrasburgo09-07-2014:00 UTC326.17 WSW1014
France/FranciaMontepellier09-07-2014:00 UTC295.14 SSW1016
France/FranciaLione/Lyon09-07-2014:00 UTC342.57 S1015
France/FranciaLilla09-07-2014:00 UTC247.2 W1013
France/FranciaBrest09-07-2014:00 UTC177.2 WSW1017
France/FranciaBordeaux09-07-2014:00 UTC322.57 W1017
France/FranciaMarsiglia/Marsei09-07-2014:00 UTC305.14 W1016
Germany/GermaniaAmburgo-fink09-07-2014:20 UTC134.12 NNE1011
Germany/GermaniaAmburgo-fuhl09-07-2014:20 UTC132.57 NNE1011
Germany/GermaniaBerlin-sch09-07-2014:20 UTC195.14 SSW1011
Germany/GermaniaBerlino-tegel09-07-2014:20 UTC193.6 SSW1011
Germany/GermaniaMonaco09-07-2014:20 UTC282.57 WNW1016
Germany/GermaniaNonimberga09-07-2014:20 UTC274.63 WSW1014
Germany/GermaniaFrancoforte09-07-2014:20 UTC297.72 WSW1012
Germany/GermaniaStoccarda09-07-2014:20 UTC304.63 W1015
Germany/GermaniaHannover09-07-2014:20 UTC195.66 WSW1011pioggia
Germany/GermaniaDusseldorf09-07-2014:20 UTC225.66 WSW1013
ISReykjavik09-07-2014:00 UTC127.2 NW1015
Netherlands/Paesi baAmsterdam09-07-2014:25 UTC176.69 WSW1011
Netherlands/Paesi BaRotterdam09-07-2014:25 UTC185.66 SW1012
Netherlands/Paesi BaGroninga/Groningen09-07-2014:25 UTC144.12 ENE1011
Netherlands/Paesi baMaastrich09-07-2014:25 UTC214.63 WSW1013
Norway-NorvegiaOslo09-07-2014:20 UTC162.57 SW1009
Norway-NorvegiaTrondheim09-07-2014:20 UTC137.2 W1011
Norway-NorvegiaBergen09-07-2014:20 UTC145.66 NNW1013
Norway-NorvegiaBodo09-07-2014:20 UTC123.09 W1009
Poland/PoloniaVarsavia/Warsawa09-07-2014:00 UTC214.12 S1016
Portugal-PortogalloLisbona/Lisboa09-07-2014:00 UTC284.63 NNW1016
Portugal-PortogalloFaro-airport09-07-2014:00 UTC224.63 SW1016
Portugal-PortogalloPorto Santo09-07-2014:00 UTC226.69 N1022
Portugal-PortogalloPorto/Pedras Rubra09-07-2014:00 UTC233.09 WNW1017
RUSMosca09-07-2014:00 UTC195 W1014
Russian-RussiaSt.Peterburg09-07-2014:00 UTC183 W1009
RusVladivostok09-07-2014:00 UTC203 ESE1007
RomaniaBucarest09-07-2014:00 UTC291.54 SSW1018
Spain/SpagnaMadrid/Barajas09-07-2014:00 UTC345.66 S1016
Spain/SpagnaMadrid/Cuatro09-07-2014:00 UTC332.06 1016
Spain/SpagnaBarcellona09-07-2014:00 UTC274.63 SSE1016
Spain/SpagnaLa Couruna09-07-2014:00 UTC204.63 NNE1021
Spain/SpagnaAlmeria09-07-2014:00 UTC285.14 SSW1015
Spain/SpagnaValencia09-07-2014:00 UTC315.14 E1016
SpainIbiza09-07-2014:00 UTC289.26 ENE1014
Sweden-SveziaStockholm/Stoccolm09-07-2014:20 UTC193.6 WSW1009
Sweden-SveziaGoteborg09-07-2010:20 UTC-20 N1012
Sweden-SveziaMalmo09-07-2014:20 UTC154.12 SSW1012
Sweden-SveziaKiruna09-07-2014:20 UTC155.14 N1004
Sweden-SveziaSundsvall09-07-2014:20 UTC152.06 WSW1007
Sweden-SveziaJongkoping09-07-2014:20 UTC186.17 SSW1010
Sweden-SveziaJongkoping09-07-2014:20 UTC186.17 SSW1010
Sweden-SveziaJongkoping09-07-2014:20 UTC186.17 SSW1010
Sweden-SveziaJongkoping09-07-2014:20 UTC186.17 SSW1010
Sweden-SveziaJongkoping09-07-2014:20 UTC186.17 SSW1010
Sweden-SveziaJongkoping09-07-2014:20 UTC186.17 SSW1010
Ukraine/UcrainaLvov/l'viv09-07-2014:00 UTC203 WSW1020
Ukraine/UcrainaKijev09-07-2014:00 UTC214 W1019
United KingdomBelfast-airport09-07-2014:20 UTC176.17 NNW1016
United KingdomBirmingham09-07-2014:20 UTC144.63 NNE1012
United KingdomEdimburgo/Edimburg09-07-2014:20 UTC174.63 NE1013
United KingdomLeeds09-07-2014:20 UTC124.12 ENE1013
United KingdomLiverpool09-07-2014:20 UTC155.66 NE1013
United KingdomBristol09-07-2014:20 UTC178.23 W1012
United KingdomPlymouth09-07-2015:20 UTC66.17 NW1018
GBLondra09-07-2014:20 UTC195.66 WSW1011
UngheriaBudapest09-07-2014:00 UTC293.6 WSW1017
United KingdomManchester-airport09-07-2014:20 UTC143.6 NE1013
yugoslaviaBelgrado/Beograd09-07-2014:00 UTC292.57 E1019
09-07-2014:20 UTC295.14 NNW1015
 

 .

. .
. . . .

informazioni e contatti

www.meteorete.it
by.A.Santagostini C.2001-2016
P.I.05250380960

Partecipa alla rete meteorologica

  
 Cerca Meteo  
Stazioni meteo AM
Satellite e Radar
Rete in GooGle Maps
stazioni meteorete
Schermo solare Meteorete e Davis
stazioni automatiche
stazioni AM
rete internazionale
stazioni estere
archivio articoli
citta fredde

i nostri amici
negozio meteorete
dati storici stazioni
clima e riscaldamento globale
progetto meteo nelle scuole
temperatura Media in Italia 1951-2000
galleria di immagini
noleggio webcam
servizi meteo gratuiti
meteorologia per le scuole elementari